This demonstration page uses our WeatherBlox Daily Observations layout. Learn more.

Left ArrowRight Arrow

Hourly Observations for April 29, 2020

Temp ( °F °C ) Dew Point ( °F °C ) Humidity (%) Winds ( mph kmh ) Pressure ( in mb ) Visibility ( mi km ) Precip ( " mm )
12:54 am 00:54 Mostly Cloudy 54 12.2 41 5 62 62 NW 16 26 29.86 1011 10 16.0934 0 0
1:54 am 01:54 Partly Cloudy 52 11.1 40 4.4 64 64 NW 13 20 29.87 1012 10 16.0934 0 0
2:54 am 02:54 Cloudy 52 11.1 40 4.4 64 64 NW 14 22 29.85 1011 10 16.0934 0.001 0.001
3:54 am 03:54 Cloudy 52 11.1 41 5 66 66 NW 14 22 29.85 1011 10 16.0934 0 0
4:54 am 04:54 Cloudy 53 11.7 41 5 64 64 NNW 16 26 29.87 1011 10 16.0934 0 0
5:54 am 05:54 Cloudy 52 11.1 41 5 66 66 NNW 18 30 29.89 1012 10 16.0934 0 0
6:54 am 06:54 Cloudy 51 10.6 42 5.6 71 71 NNW 18 30 29.92 1013 10 16.0934 0 0
7:25 am 07:25 Cloudy 51 10.6 42 5.6 71 71 NNW 20 31 29.96 1015 10 16.0934 0 0
7:54 am 07:54 Mostly Cloudy 53 11.7 43 6.1 69 69 NNW 23 37 29.95 1014 10 16.0934 0 0
8:28 am 08:28 Mostly Cloudy 54 12.2 43 6.1 67 67 NNW 28 44 29.98 1015 10 16.0934 0 0
8:54 am 08:54 Cloudy 54 12.2 44 6.7 69 69 NNW 23 37 29.98 1015 10 16.0934 0 0
9:54 am 09:54 Mostly Cloudy 56 13.3 43 6.1 62 62 NNW 32 52 30.01 1016 10 16.0934 0 0
10:54 am 10:54 Mostly Cloudy 61 16.1 42 5.6 50 50 N 30 48 30.01 1016 10 16.0934 0 0
11:54 am 11:54 Mostly Cloudy 63 17.2 43 6.1 48 48 NNW 22 35 30.03 1017 10 16.0934 0 0
12:54 pm 12:54 Partly Cloudy 65 18.3 42 5.6 43 43 NNW 30 48 30.03 1017 10 16.0934 0 0
1:54 pm 13:54 Mostly Cloudy 67 19.4 43 6.1 42 42 NNW 26 43 30.03 1017 10 16.0934 0 0
2:54 pm 14:54 Partly Cloudy 68 20 42 5.6 39 39 NNW 28 44 30.03 1017 10 16.0934 0 0
3:54 pm 15:54 Cloudy 66 18.9 41 5 40 40 NNW 25 41 30.02 1017 10 16.0934 0 0
4:54 pm 16:54 Mostly Cloudy 67 19.4 41 5 39 39 N 29 46 30.02 1017 10 16.0934 0 0
5:54 pm 17:54 Cloudy 69 20.6 41 5 36 36 NNW 24 39 30.02 1017 10 16.0934 0 0
6:54 pm 18:54 Mostly Sunny 67 19.4 42 5.6 41 41 NNW 21 33 30.03 1017 10 16.0934 0 0
7:54 pm 19:54 Sunny 65 18.3 42 5.6 43 43 NNW 16 26 30.03 1017 10 16.0934 0 0
8:54 pm 20:54 Clear 61 16.1 43 6.1 52 52 NW 8 13 30.05 1018 10 16.0934 0 0
9:54 pm 21:54 Clear 60 15.6 42 5.6 52 52 NW 13 20 30.06 1018 10 16.0934 0 0
10:54 pm 22:54 Clear 58 14.4 42 5.6 56 56 NW 12 19 30.07 1018 10 16.0934 0 0
11:54 pm 23:54 Clear 56 13.3 42 5.6 60 60 NNW 12 19 30.07 1018 10 16.0934 0 0

Powered by AerisWeather